Weather History for Poughkeepsie, NY

Change the Weather History Date:

Wednesday, February 27, 2013

  Actual Average Record
Temperature  
Mean Temperature 40 °F 31 °F  
Max Temperature 46 °F 42 °F 64 °F (1976)
Min Temperature 34 °F 20 °F -14 °F (1963)
Degree Days  
Heating Degree Days 25 34  
Month to date heating degree days 947 985  
Since 1 July heating degree days 4098 4537  
Cooling Degree Days 0 0  
Month to date cooling degree days 0 0  
Year to date cooling degree days 0 0  
Moisture  
Dew Point 38 °F    
Average Humidity 88    
Maximum Humidity 100    
Minimum Humidity 75    
Precipitation  
Precipitation 0.65 in 0.11 in 0.65 in (2013)
Month to date precipitation 1.51 2.56  
Year to date precipitation 3.56 5.64  
Sea Level Pressure  
Sea Level Pressure 29.65 in    
Wind  
Wind Speed 8 mph (East)    
Max Wind Speed 18 mph    
Max Gust Speed 29 mph    
Visibility 6 miles    
Events Rain    
T = Trace of Precipitation, MM = Missing Value Source: NWS Daily Summary

Daily Weather History Graph

Daily Weather History Graph

Search for Another Location

Airport:

Trip Planner

Search our weather history database for the weather conditions in past years. The results will help you decide how hot, cold, wet, or windy it might be!

Date:

Astronomy

Feb. 27, 2013 Rise Set
Actual Time 6:33 AM EST 5:43 PM EST
Civil Twilight 6:05 AM EST 6:11 PM EST
Nautical Twilight 5:33 AM EST 6:44 PM EST
Astronomical Twilight 5:00 AM EST 7:16 PM EST
Moon 8:05 PM EST (2/27) 7:04 AM EST (2/27)
Length of Visible Light 12h 06m
Length of Day
11h 10m
Waning Gibbous, 96% of the Moon is Illuminated
Feb 27
Waning Gibbous
Mar 4
Last Quarter
Mar 11
New
Mar 19
First Quarter
Mar 27
Full

Hourly Weather History & Observations

Time (EST) Temp. Windchill Dew Point Humidity Pressure Visibility Wind Dir Wind Speed Gust Speed Precip Events Conditions
12:07 AM 35.6 °F 29.2 °F 28.4 °F 75% 29.97 in 10.0 mi ENE 8.1 mph 17.3 mph 0.00 in Rain Light Rain
12:53 AM 35.1 °F 27.4 °F 30.9 °F 85% 29.95 in 6.0 mi NE 10.4 mph 18.4 mph 0.01 in Rain Light Rain
1:53 AM 35.1 °F 28.6 °F 32.0 °F 89% 29.93 in 4.0 mi NNE 8.1 mph - 0.09 in Rain Light Rain
2:53 AM 34.0 °F 28.0 °F 33.1 °F 96% 29.88 in 4.0 mi North 6.9 mph - 0.06 in Rain Light Rain
3:43 AM 33.8 °F 27.7 °F 33.8 °F 100% 29.85 in 2.5 mi North 6.9 mph - 0.06 in Rain Light Rain
3:53 AM 34.0 °F 26.6 °F 33.1 °F 96% 29.83 in 2.0 mi North 9.2 mph - 0.09 in Rain Light Rain
4:11 AM 33.8 °F 27.0 °F 33.8 °F 100% 29.82 in 4.0 mi North 8.1 mph - 0.01 in Rain Light Rain
4:53 AM 34.0 °F 28.0 °F 33.1 °F 96% 29.80 in 2.5 mi North 6.9 mph - 0.07 in Rain Light Rain
5:02 AM 33.8 °F 29.6 °F 33.8 °F 100% 29.81 in 3.0 mi North 4.6 mph - 0.02 in Rain Light Rain
5:53 AM 34.0 °F 28.0 °F 33.1 °F 96% 29.77 in 5.0 mi North 6.9 mph - 0.06 in Rain Light Rain
6:53 AM 39.0 °F 31.8 °F 36.0 °F 89% 29.73 in 5.0 mi ENE 11.5 mph 19.6 mph 0.04 in Rain Light Rain
7:53 AM 39.9 °F 33.9 °F 37.0 °F 89% 29.70 in 7.0 mi ENE 9.2 mph - 0.06 in   Overcast
8:53 AM 43.0 °F 35.7 °F 37.9 °F 82% 29.65 in 10.0 mi ENE 15.0 mph 28.8 mph N/A   Overcast
9:53 AM 45.0 °F 39.3 °F 39.0 °F 80% 29.61 in 10.0 mi East 11.5 mph 26.5 mph N/A   Overcast
10:53 AM 45.0 °F 40.1 °F 39.9 °F 82% 29.59 in 4.0 mi ENE 9.2 mph 18.4 mph 0.00 in Rain Light Rain
11:53 AM 45.0 °F 38.9 °F 41.0 °F 86% 29.57 in 8.0 mi East 12.7 mph 24.2 mph 0.04 in   Overcast
12:36 PM 44.6 °F 38.4 °F 41.0 °F 87% 29.54 in 2.5 mi East 12.7 mph 23.0 mph 0.02 in Rain Light Rain
12:45 PM 44.6 °F 37.8 °F 41.0 °F 87% 29.53 in 5.0 mi East 15.0 mph 26.5 mph 0.03 in Rain Light Rain
12:53 PM 45.0 °F 39.3 °F 41.0 °F 86% 29.52 in 10.0 mi East 11.5 mph 20.7 mph 0.03 in   Overcast
1:53 PM 46.0 °F 39.0 °F 41.0 °F 83% 29.52 in 6.0 mi ESE 17.3 mph 27.6 mph N/A   Haze
2:40 PM 44.6 °F 38.8 °F 41.0 °F 87% 29.52 in 2.0 mi East 11.5 mph 17.3 mph 0.01 in Rain Light Rain
2:53 PM 45.0 °F 39.3 °F 41.0 °F 86% 29.51 in 1.8 mi East 11.5 mph - 0.01 in Rain Light Rain
3:53 PM 44.1 °F 39.5 °F 41.0 °F 89% 29.51 in 1.8 mi SE 8.1 mph - 0.01 in Rain Light Rain
4:53 PM 44.1 °F 42.5 °F 42.1 °F 93% 29.53 in 1.8 mi South 3.5 mph - 0.02 in Rain Light Rain
5:01 PM 44.6 °F - 42.8 °F 93% 29.54 in 2.0 mi Calm Calm - 0.00 in Rain Light Rain
5:37 PM 42.8 °F - 42.8 °F 100% 29.55 in 2.0 mi Calm Calm - 0.02 in Rain Light Rain
5:53 PM 43.0 °F - 42.1 °F 97% 29.56 in 2.0 mi Calm Calm - 0.02 in   Overcast
6:30 PM 42.8 °F - 42.8 °F 100% 29.58 in 2.0 mi Calm Calm - 0.01 in Rain Light Rain
6:40 PM 42.8 °F - 42.8 °F 100% 29.58 in 2.0 mi Calm Calm - 0.03 in Rain Light Rain
6:53 PM 43.0 °F - 42.1 °F 97% 29.58 in 2.0 mi Calm Calm - 0.04 in Rain Light Rain
7:08 PM 42.8 °F 40.1 °F 42.8 °F 100% 29.59 in 2.0 mi SW 4.6 mph - 0.00 in Rain Light Rain
7:24 PM 42.8 °F 38.6 °F 41.0 °F 93% 29.59 in 10.0 mi SW 6.9 mph - 0.00 in Rain Light Rain
7:53 PM 42.1 °F 38.4 °F 39.9 °F 92% 29.59 in 10.0 mi SW 5.8 mph - 0.00 in   Overcast
8:28 PM 41.0 °F 39.0 °F 37.4 °F 87% 29.61 in 10.0 mi SSW 3.5 mph - N/A   Mostly Cloudy
8:53 PM 39.9 °F 35.1 °F 36.0 °F 86% 29.61 in 10.0 mi SW 6.9 mph - N/A   Overcast
9:43 PM 41.0 °F 39.0 °F 35.6 °F 81% 29.63 in 10.0 mi South 3.5 mph - N/A   Mostly Cloudy
9:53 PM 41.0 °F - 36.0 °F 82% 29.62 in 10.0 mi Calm Calm - N/A   Overcast
10:12 PM 39.2 °F 37.0 °F 35.6 °F 87% 29.63 in 10.0 mi SSE 3.5 mph - N/A   Overcast
10:28 PM 39.2 °F - 35.6 °F 87% 29.62 in 10.0 mi Calm Calm - N/A   Mostly Cloudy
10:44 PM 37.4 °F 34.9 °F 35.6 °F 93% 29.62 in 10.0 mi SSW 3.5 mph - N/A   Mostly Cloudy
10:53 PM 39.0 °F - 36.0 °F 89% 29.62 in 10.0 mi Calm Calm - N/A   Mostly Cloudy
11:53 PM 39.0 °F - 36.0 °F 89% 29.61 in 10.0 mi Calm Calm - N/A   Overcast